KOREASAT 5A

Last updated on Thu Oct 30 2025 00:02:51 GMT+0000 (Coordinated Universal Time)

1 42984U 17067A 25302.52981397 -.00000348 00000+0 00000+0 0 9998 2 42984 0.0125 288.6892 0001804 295.1257 118.2133 1.00270657 29215
UTC large
Height (km)
Speed (km/s)
/
Latitude / Longitude
Inclination (degrees)
Orbital Period (minutes)
Azimuth
Elevation
Range (km)
Doppler Factor

Next 0 passes for location: London (51.5072 / 0.1276)

Sorry there are no passes over London.